Weather reports worldwide

Advertisment
Boulogne, France (7002): temperature & dewpoint: 11.10.2018 08:00:00 - 17.10.2018 08:00:00 (CEST)Boulogne, France (7002): wind speed & gusts: 11.10.2018 08:00:00 - 17.10.2018 08:00:00 (CEST)Boulogne, France (7002): wind direction: 11.10.2018 08:00:00 - 17.10.2018 08:00:00 (CEST)Boulogne, France (7002): reduced air pressure: 11.10.2018 08:00:00 - 17.10.2018 08:00:00 (CEST)Boulogne, France (7002): visibility: 11.10.2018 08:00:00 - 17.10.2018 08:00:00 (CEST)Boulogne, France (7002): precipitation: 11.10.2018 08:00:00 - 17.10.2018 08:00:00 (CEST)
Date & Time tt [°C] td [°C] ff [km/h] ff [kn] fx [km/h] fx [kn] dd ppp [hPa] vv [km] rr [mm]
17.10.2018 08:00:00 14,4 11,5 8 4 19 10 WSW 1018,8 10 0,0
17.10.2018 07:00:00 14,6 11,9 14 8 25 14 W 1018,6 - 0,0
17.10.2018 06:00:00 15,2 12,9 13 7 24 13 W 1018,3 - 0,0
17.10.2018 05:00:00 15,5 13,5 15 8 26 14 WSW 1018,1 - 0,0
17.10.2018 04:00:00 15,6 13,3 16 9 24 13 WSW 1018,3 - 0,0
17.10.2018 03:00:00 15,6 14,0 16 9 23 12 WSW 1018,3 - 0,0
17.10.2018 02:00:00 15,5 13,9 10 6 20 11 SW 1018,3 10 0,0
17.10.2018 01:00:00 16,0 14,0 12 6 21 11 WSW 1018,4 - 0,0
17.10.2018 00:00:00 15,7 13,4 7 4 17 9 SW 1018,5 - 0,0
16.10.2018 23:00:00 15,7 13,4 10 6 15 8 WSW 1018,5 - 0,0
16.10.2018 22:00:00 15,4 13,1 10 5 24 13 WSW 1018,5 - 0,0
16.10.2018 21:00:00 15,3 13,0 9 5 21 12 SW 1018,4 - 0,0
16.10.2018 20:00:00 15,6 13,8 15 8 24 13 WSW 1018,3 - 0,0
16.10.2018 19:00:00 15,9 13,9 9 5 19 11 WSW 1017,8 - 0,0
16.10.2018 18:00:00 17,8 12,9 10 5 16 8 W 1017,4 - 0,0
16.10.2018 17:00:00 19,2 12,2 9 5 21 11 W 1017,1 10 0,0
16.10.2018 16:00:00 20,3 11,0 13 7 27 15 S 1017,0 - 0,0
16.10.2018 15:00:00 19,1 10,9 22 12 36 20 SW 1017,3 - 0,0
16.10.2018 14:00:00 19,8 9,4 19 11 34 18 SSW 1017,4 - 0,0
16.10.2018 13:00:00 20,0 9,3 18 10 30 16 S 1017,5 - 0,0
16.10.2018 12:00:00 20,5 10,0 13 7 25 14 S 1017,3 - 0,0
16.10.2018 11:00:00 18,9 9,9 13 7 25 14 S 1017,2 10 0,0
16.10.2018 10:00:00 16,9 8,6 18 10 - - SSE 1017,1 - 0,0
16.10.2018 09:00:00 15,7 8,7 15 8 - - SE 1016,8 - -
16.10.2018 08:00:00 15,6 8,6 16 9 27 15 SE 1016,1 12 0,0
16.10.2018 07:00:00 15,7 8,7 16 8 27 15 SE 1015,8 - 0,0
16.10.2018 06:00:00 16,3 9,0 16 9 26 14 SE 1015,4 - 0,0
16.10.2018 05:00:00 16,3 9,2 14 8 25 13 SE 1015,1 12 0,0
16.10.2018 04:00:00 16,8 9,7 14 8 28 15 SSE 1014,9 - 0,0
16.10.2018 03:00:00 16,3 10,8 11 6 21 12 SE 1015,0 - 0,0
16.10.2018 02:00:00 16,4 11,3 10 5 19 10 SE 1015,0 - 0,0
16.10.2018 01:00:00 16,8 12,7 7 4 32 17 SSE 1014,6 - 0,0
16.10.2018 00:00:00 16,7 13,8 10 6 26 14 ESE 1014,3 - 0,0
15.10.2018 23:00:00 16,0 14,2 15 8 24 13 E 1014,3 12 0,0
15.10.2018 22:00:00 16,2 14,4 13 7 26 14 E 1013,7 - 0,0
15.10.2018 21:00:00 16,7 14,2 18 10 26 14 ENE 1013,3 - 0,0
15.10.2018 20:00:00 17,2 14,3 7 4 18 10 E 1013,3 - 0,0
15.10.2018 19:00:00 17,6 14,5 10 5 15 8 NNE 1013,0 - 0,0
15.10.2018 18:00:00 18,6 14,5 7 4 11 6 NNW 1012,4 - 0,0
15.10.2018 17:00:00 18,8 14,7 5 3 13 7 NW 1011,9 12 0,0
15.10.2018 16:00:00 19,0 14,7 8 5 23 12 W 1011,3 - 0,0
15.10.2018 15:00:00 20,0 14,4 13 7 29 15 WSW 1011,0 - 0,0
15.10.2018 14:00:00 19,8 14,8 18 10 30 16 SW 1010,6 12 0,0
15.10.2018 13:00:00 20,2 14,1 18 10 36 20 SSW 1010,4 - 0,0
15.10.2018 12:00:00 20,1 15,1 11 6 33 18 S 1010,0 12 0,0
15.10.2018 11:00:00 19,5 14,5 13 7 32 17 S 1009,1 - 0,0
15.10.2018 10:00:00 17,5 13,4 17 9 27 15 SSE 1008,8 - 0,0
15.10.2018 09:00:00 16,7 12,4 16 9 28 15 SSE 1008,2 - 0,0
15.10.2018 08:00:00 16,9 12,2 16 9 31 17 SE 1007,5 - 0,0
15.10.2018 07:00:00 17,2 11,9 22 12 35 19 SSE 1006,7 - 0,0
15.10.2018 06:00:00 16,6 11,7 14 8 29 16 SE 1006,2 - 0,0
15.10.2018 05:00:00 16,5 12,3 16 8 30 16 SE 1006,1 6 0,0
15.10.2018 04:00:00 15,6 14,1 15 8 26 14 E 1005,9 - 0,0
15.10.2018 03:00:00 15,8 14,5 18 10 31 17 ENE 1006,0 - 0,0
15.10.2018 02:00:00 15,7 14,9 22 12 39 21 ENE 1006,1 6 0,0
15.10.2018 01:00:00 15,6 14,8 27 14 41 22 ENE 1005,9 - 0,0
15.10.2018 00:00:00 15,9 14,8 22 12 37 20 NE 1006,0 - 0,0
14.10.2018 23:00:00 16,3 15,0 26 14 40 22 ENE 1005,9 10 0,0
14.10.2018 22:00:00 16,2 14,9 20 11 33 18 ENE 1006,1 - 0,0
14.10.2018 21:00:00 16,0 14,7 16 9 30 16 NE 1006,4 - 0,0
14.10.2018 20:00:00 18,2 15,1 14 8 26 14 NNW 1006,1 - 0,0
14.10.2018 19:00:00 20,3 14,2 0 0 8 4 N 1005,2 - 0,0
14.10.2018 18:00:00 20,6 14,3 6 3 20 11 SSE 1004,9 - 0,0
14.10.2018 17:00:00 21,0 14,2 10 5 29 16 S 1004,5 10 0,0
14.10.2018 16:00:00 21,0 13,9 16 9 33 18 S 1004,4 - 0,0
14.10.2018 15:00:00 21,7 14,1 19 10 38 21 S 1004,0 - 0,0
14.10.2018 14:00:00 21,5 14,2 21 11 38 20 S 1004,4 10 0,0
14.10.2018 13:00:00 21,1 13,8 20 11 41 22 SSE 1004,3 - 0,0
14.10.2018 12:00:00 20,5 13,5 20 11 37 20 SSE 1004,6 - 0,0
14.10.2018 11:00:00 19,4 13,6 18 10 37 20 SSE 1004,8 9 0,0
14.10.2018 10:00:00 18,1 13,6 19 10 35 19 SSE 1005,1 - 0,0
14.10.2018 09:00:00 17,2 13,3 19 10 33 18 SE 1005,2 - 0,0
14.10.2018 08:00:00 17,8 13,3 22 12 35 19 SE 1005,1 - 0,0
14.10.2018 07:00:00 18,5 13,8 18 10 31 17 SE 1005,5 - 0,0
14.10.2018 06:00:00 18,2 13,9 16 9 25 14 SE 1006,6 - 0,0
14.10.2018 05:00:00 18,8 14,3 14 8 24 13 SE 1007,0 20 0,0
14.10.2018 04:00:00 19,1 14,4 12 7 27 15 SE 1007,9 - 0,0
14.10.2018 03:00:00 19,3 14,5 17 9 29 16 SE 1008,2 - 0,0
14.10.2018 02:00:00 19,5 14,7 18 10 31 17 SSE 1008,6 20 0,0
14.10.2018 01:00:00 20,4 15,2 17 9 35 19 SSE 1009,2 - 0,0
14.10.2018 00:00:00 20,5 15,1 19 11 40 22 SSE 1010,0 - 0,0
13.10.2018 23:00:00 21,1 15,0 22 12 41 22 S 1010,4 - 0,0
13.10.2018 22:00:00 20,9 15,0 18 10 39 21 SSE 1010,8 - 0,0
13.10.2018 21:00:00 21,3 15,2 23 12 40 22 SSE 1010,5 - 0,0
13.10.2018 20:00:00 21,5 15,6 21 12 38 20 SSE 1010,7 - 0,0
13.10.2018 19:00:00 22,1 15,7 20 11 40 21 S 1010,7 - 0,0
13.10.2018 18:00:00 23,2 16,3 25 14 48 26 SSE 1010,3 - 0,0
13.10.2018 17:00:00 24,0 16,3 25 14 47 26 SSE 1010,7 - 0,0
13.10.2018 16:00:00 24,0 16,3 28 15 55 30 SSE 1011,3 - 0,0
13.10.2018 15:00:00 24,8 16,8 23 12 50 27 SSE 1011,9 - 0,0
13.10.2018 14:00:00 24,5 16,7 26 14 51 28 SSE 1012,7 20 0,0
13.10.2018 13:00:00 23,7 16,0 25 13 48 26 SSE 1013,8 - 0,0
13.10.2018 12:00:00 23,3 14,6 22 12 43 23 S 1014,3 - 0,0
13.10.2018 11:00:00 20,9 15,2 27 15 51 27 SSE 1014,6 20 0,0
13.10.2018 10:00:00 19,5 14,7 28 15 44 24 SSE 1014,8 - 0,0
13.10.2018 09:00:00 18,5 14,2 22 12 41 22 SE 1014,7 - 0,0
13.10.2018 08:00:00 18,0 13,3 23 13 41 22 SE 1014,7 - 0,0
13.10.2018 07:00:00 17,9 13,0 24 13 40 22 SSE 1015,1 - 0,0
13.10.2018 06:00:00 17,9 13,0 26 14 41 22 SSE 1015,3 - 0,0
13.10.2018 05:00:00 17,7 13,4 22 12 41 22 SSE 1015,5 10 0,0
13.10.2018 04:00:00 18,4 13,0 22 12 42 23 SSE 1015,8 - 0,0
13.10.2018 03:00:00 19,1 13,3 21 11 52 28 S 1016,0 - 0,0
13.10.2018 02:00:00 19,5 13,7 29 15 51 27 S 1015,6 10 0,0
13.10.2018 01:00:00 20,0 13,7 29 16 55 30 S 1015,6 - 0,0
13.10.2018 00:00:00 20,2 14,1 31 17 58 31 S 1015,8 - 0,0
12.10.2018 23:00:00 20,4 14,7 35 19 63 34 S 1015,4 10 0,0
12.10.2018 22:00:00 20,7 14,3 34 19 58 31 S 1015,7 - 0,0
12.10.2018 21:00:00 20,6 14,7 31 17 53 29 S 1015,6 - 0,0
12.10.2018 20:00:00 20,5 14,4 31 17 54 29 S 1015,2 19 0,0
12.10.2018 19:00:00 20,9 15,0 32 17 54 29 S 1014,7 - 0,0
12.10.2018 18:00:00 20,9 15,9 29 16 50 27 S 1014,2 - 0,0
12.10.2018 17:00:00 21,3 14,9 32 17 61 33 S 1014,7 - 0,0
12.10.2018 16:00:00 22,1 15,9 26 14 53 29 S 1014,6 - 0,0
12.10.2018 15:00:00 21,7 12,8 28 15 53 29 SSE 1014,4 - 0,0
12.10.2018 14:00:00 21,0 11,6 21 11 48 26 SSE 1014,6 19 0,0
12.10.2018 13:00:00 19,0 9,7 23 12 47 26 S 1014,8 - 0,0
12.10.2018 12:00:00 17,9 10,3 21 12 50 27 S 1014,7 - 0,0
12.10.2018 11:00:00 15,7 10,5 26 14 42 23 SSE 1014,6 19 0,0
12.10.2018 10:00:00 14,0 10,4 25 13 40 22 SSE 1014,3 - 0,0
12.10.2018 09:00:00 13,7 10,5 23 12 40 22 S 1014,1 - 0,0
12.10.2018 08:00:00 13,3 10,7 24 13 50 27 SSE 1013,4 18 0,0
12.10.2018 07:00:00 13,1 11,3 23 12 39 21 SSE 1013,1 - 0,0
12.10.2018 06:00:00 13,0 11,7 18 10 32 17 SSE 1012,9 - 0,0
12.10.2018 05:00:00 14,0 12,4 16 9 40 22 S 1012,5 20 0,0
12.10.2018 04:00:00 15,0 12,9 23 13 48 26 S 1012,2 - 0,0
12.10.2018 03:00:00 15,2 12,7 25 14 52 28 SSW 1011,9 - 0,0
12.10.2018 02:00:00 15,4 13,1 27 15 53 29 SSW 1011,3 - 0,0
12.10.2018 01:00:00 15,6 14,0 28 15 54 29 SSW 1010,6 - 0,0
12.10.2018 00:00:00 15,3 14,7 22 12 39 21 S 1009,9 - 0,0
11.10.2018 23:00:00 15,4 14,8 20 11 50 27 SW 1009,2 - 7,0
11.10.2018 22:00:00 16,0 14,2 34 18 54 29 WSW 1008,3 - 0,8
11.10.2018 21:00:00 18,9 14,2 19 10 37 20 SSE 1007,5 - 0,0
11.10.2018 20:00:00 19,5 13,9 12 7 32 17 SSE 1007,6 8 0,0
11.10.2018 19:00:00 20,2 13,6 19 10 34 18 SSW 1007,4 - 0,0
11.10.2018 18:00:00 21,0 13,7 17 9 49 26 SSW 1007,1 - 0,0
11.10.2018 17:00:00 23,0 13,5 21 11 50 27 S 1006,4 12 0,0
11.10.2018 16:00:00 22,6 13,4 27 15 56 30 S 1006,3 - 0,0
11.10.2018 15:00:00 23,1 13,6 25 14 56 30 S 1005,9 - 0,0
11.10.2018 14:00:00 22,4 14,5 23 12 50 27 SSE 1006,1 15 0,0
11.10.2018 13:00:00 20,9 14,3 29 16 52 28 SSE 1006,6 - 0,0
11.10.2018 12:00:00 19,6 14,0 24 13 48 26 SSE 1006,8 - 0,0
11.10.2018 11:00:00 17,9 13,8 25 13 - - SSE 1007,2 - 0,0
11.10.2018 10:00:00 16,8 13,5 25 14 46 25 SSE 1007,3 - 0,0
11.10.2018 09:00:00 15,8 13,5 26 14 50 27 SSE 1007,1 - 0,0
11.10.2018 08:00:00 15,5 13,5 23 13 43 23 SE 1006,6 - 0,0

tt = temperature
td = dewpoint
ff = wind speed
fx = gusts
dd = wind direction
ppp = reduced air pressure
vv = visibility
rr = precipitation

Next stations